Miscellaneous Local Product
Issued by NWS Hastings, NE

Home | Current Version | Previous Version | Graphics & Text | Print | Product List | Glossary On
Versions: 1 2 3 4 5 6 7 8 9 10 11 12 13 14 15 16 17 18 19 20 21 22 23 24 25 26 27 28 29 30 31 32 33 34 35 36 37 38 39 40 41 42 43 44 45 46 47 48 49 50
000
AXUS43 KGID 210102
MISGRI

GID CWA HOURLY WEATHER ROUNDUP
NATIONAL WEATHER SERVICE HASTINGS NE
800 PM CDT FRI OCT 20 2017

NOTE: "FAIR" INDICATES FEW OR NO CLOUDS BELOW 12,000 FEET WITH NO
SIGNIFICANT WEATHER AND/OR OBSTRUCTIONS TO VISIBILITY.

...SOUTH CENTRAL NEBRASKA...

CITY           SKY/WX    TMP DP  RH WIND       PRES   REMARKS
GRAND ISLAND   PTCLDY    70  59  68 S25G33    29.60S
KEARNEY        CLEAR     71  56  58 S26G32    29.58S
HASTINGS       CLOUDY    70  57  63 S18G33    29.62S
ORD            PTCLDY    70  56  61 S20G31    29.54S
YORK           PTCLDY    72  57  60 S22G29    29.65R
AURORA         PTCLDY    70  56  61 S22G31    29.63S
LEXINGTON      PTCLDY    72  53  52 S18G26    29.56R
HOLDREGE       MOCLDY    70  56  61 S20G29    29.59R
HEBRON         CLOUDY    73  57  57 S17G28    29.69R

...NEBRASKA PANHANDLE...

CITY           SKY/WX    TMP DP  RH WIND       PRES   REMARKS
CHADRON        CLOUDY    71  42  35 S24G30    29.38S
ALLIANCE       CLOUDY    61  45  55 S14       29.46F
SCOTTSBLUFF    CLEAR     59  37  44 E7        29.44S
SIDNEY         CLEAR     58  39  49 S12       29.51F

...WESTERN AND NORTH CENTRAL NEBRASKA...

CITY           SKY/WX    TMP DP  RH WIND       PRES   REMARKS
VALENTINE      CLEAR     65  50  58 S8        29.47R
AINSWORTH      CLEAR     64  54  69 S9        29.49S
ONEILL         CLOUDY    70  57  63 S22G30    29.53S
BROKEN BOW     CLEAR     71  53  52 S20G29    29.54R
IMPERIAL       CLEAR     65  48  54 SE10      29.49F
NORTH PLATTE   CLEAR     71  51  49 S17G26    29.50R
MCCOOK         CLEAR     71  52  50 SE17      29.52S

...EASTERN NEBRASKA...

CITY           SKY/WX    TMP DP  RH WIND       PRES   REMARKS
NORFOLK        CLEAR     71  57  61 S25G35    29.58S
SO SIOUX CITY  CLEAR     70  59  68 S17G25    29.64S
TEKAMAH        PTCLDY    72  57  59 S17G29    29.67F
COLUMBUS       PTCLDY    72  58  61 S17G29    29.64R
ALBION         PTCLDY    72  58  62 S18G29    29.60R
OMAHA EPPLEY   PTCLDY    72  57  59 S25G32    29.71R
OFFUTT AFB     CLEAR     71  57  61 SE22G31   29.71S
MILLARD        CLEAR     73  59  60 S15G26    29.70S
LINCOLN        MOCLDY    72  57  59 S23G32    29.69R
NEBRASKA CITY  CLEAR     69  60  71 S20G29    29.75S
BEATRICE       MOCLDY    71  58  63 S23G31    29.71R
FALLS CITY     CLEAR     68  57  68 S13       29.78S

...NORTHERN KANSAS...

CITY           SKY/WX    TMP DP  RH WIND       PRES   REMARKS
GOODLAND       CLEAR     60  46  59 S9        29.53F
HILL CITY      PTCLDY    72  57  59 S23G36    29.59S
NORTON         CLEAR     70  52  52 SE17G25   29.57S
PHILLIPSBURG   CLEAR     72  55  56 SE14G21   29.60S
SMITH CENTER   CLEAR     70  57  64 SE18G28   29.63R
HAYS           CLEAR     70  58  65 S24G32    29.63R
RUSSELL        CLEAR     71  60  68 S28G35    29.64S
CONCORDIA      CLOUDY    71  58  63 S18G29    29.69S
SALINA         CLEAR     73  59  61 S22G32    29.71S
TOPEKA         CLEAR     69  58  67 SE14      29.82R



USA.gov is the U.S. government's official web portal to all federal, state and local government web resources and services.